{"data":{"norad_id":55774,"epoch":"2026-09-20T23:00:52.027200Z","epoch_age_seconds":63446,"freshness":"FRESH","line1":"1 55774U 23028AK  26263.95893550  .00000159  00000+0  21147-4 0  9999","line2":"2 55774  69.9981  92.0701 0002678 273.1908  86.8945 14.98330998195788","mean_motion":14.98330998,"eccentricity":0.0002678,"inclination_deg":69.9981,"raan_deg":92.0701,"arg_perigee_deg":273.1908,"mean_anomaly_deg":86.8945,"bstar":2.1147e-5,"rev_number":19578,"period_min":96.106935111276,"perigee_km":570.19154388375,"apogee_km":573.91406554316,"semimajor_km":6950.1898047135,"source":"CELESTRAK","updated_at":"2026-09-21T09:00:33.317918Z"}}